This is the latest recevied weather packets stored in our database for station/object K42C. If no packets are shown the sender has not sent any weather packets the latest 10 day(s).
| Time | Temp. | Humidity | Pressure | Rain* | Wind** | Luminosity | Snow |
|---|---|---|---|---|---|---|---|
| 1777861374 | 11.67° C | 77% | 968.7 hPa | 0 mm | 2.68 m/s, 187° | - | - |
| 1777860973 | 11.67° C | 76% | 968.8 hPa | 0 mm | 2.68 m/s, 183° | - | - |
| 1777860575 | 11.67° C | 76% | 968.8 hPa | 0 mm | 3.58 m/s, 191° | - | - |
| 1777860175 | 11.67° C | 76% | 968.7 hPa | 0 mm | 3.13 m/s, 172° | - | - |
| 1777859777 | 11.67° C | 75% | 968.8 hPa | 0 mm | 2.24 m/s, 200° | - | - |
| 1777859376 | 11.67° C | 75% | 968.7 hPa | 0 mm | 3.13 m/s, 120° | - | - |
| 1777858979 | 12.22° C | 75% | 968.8 hPa | 0 mm | 0.89 m/s, 167° | - | - |
| 1777858578 | 12.22° C | 74% | 968.8 hPa | 0 mm | 2.24 m/s, 194° | - | - |
| 1777858181 | 12.22° C | 74% | 968.8 hPa | 0 mm | 2.24 m/s, 222° | - | - |
| 1777857780 | 12.22° C | 73% | 968.8 hPa | 0 mm | 1.34 m/s, 169° | - | - |
| 1777857383 | 12.22° C | 72% | 968.7 hPa | 0 mm | 1.79 m/s, 203° | - | - |
| 1777856982 | 12.78° C | 72% | 968.6 hPa | 0 mm | 1.34 m/s, 152° | - | - |
| 1777856584 | 12.78° C | 71% | 968.5 hPa | 0 mm | 2.68 m/s, 208° | - | - |
| 1777856184 | 12.78° C | 70% | 968.6 hPa | 0 mm | 3.13 m/s, 212° | - | - |
| 1777855786 | 12.78° C | 69% | 968.6 hPa | 0 mm | 2.68 m/s, 215° | - | - |
| 1777855385 | 13.33° C | 68% | 968.7 hPa | 0 mm | 2.68 m/s, 194° | - | - |
| 1777854988 | 13.33° C | 67% | 968.5 hPa | 0 mm | 1.79 m/s, 212° | - | - |
| 1777854587 | 13.89° C | 65% | 968.4 hPa | 0 mm | 3.13 m/s, 150° | - | - |
| 1777854190 | 13.89° C | 64% | 968.4 hPa | 0 mm | 2.68 m/s, 191° | - | - |
| 1777853789 | 13.89° C | 64% | 968.4 hPa | 0 mm | 2.68 m/s, 233° | - | - |
| 1777853392 | 13.89° C | 64% | 968.4 hPa | 0 mm | 4.02 m/s, 153° | - | - |
| 1777852991 | 13.89° C | 64% | 968.3 hPa | 0 mm | 3.58 m/s, 176° | - | - |
| 1777852593 | 13.89° C | 64% | 968.3 hPa | 0 mm | 3.58 m/s, 160° | - | - |
| 1777852193 | 13.89° C | 63% | 968.2 hPa | 0 mm | 2.68 m/s, 181° | - | - |
| 1777851795 | 14.44° C | 63% | 968.2 hPa | 0 mm | 4.02 m/s, 181° | - | - |
* Rain latest hour (hover to see other rain measurements)
** Current wind speed in m/s (hover to see current wind gust speed)